Location: Freiburg+im+Breisgau
(48.0359°N, 7.8195°E)
Time: 14:33:57
(UTC+02:00)

ISS - Visible Passes

Search period start: 24 July 2017 00:00
Search period end: 03 August 2017 00:00
Orbit: 400 x 408 km, 51.6° (Epoch: 24 July)

Date Brightness Start Highest point End Pass type
(mag) Time Alt. Az. Time Alt. Az. Time Alt. Az.
24 Jul -2.7 00:59:32 10° W 01:02:40 45° N 01:05:51 10° ENE visible
24 Jul -3.0 02:36:18 10° WNW 02:39:30 51° NNE 02:42:42 10° E visible
24 Jul -3.7 04:12:50 10° WNW 04:15:59 47° SSW 04:19:08 10° SE visible
24 Jul -3.5 22:30:46 10° SW 22:33:50 41° SSE 22:36:56 10° ENE visible
25 Jul -3.1 00:07:04 10° W 00:10:17 54° NNW 00:13:30 10° ENE visible
25 Jul -2.7 01:43:57 10° WNW 01:47:06 44° N 01:50:15 10° E visible
25 Jul -4.0 03:20:28 10° WNW 03:23:44 76° SSW 03:27:00 10° ESE visible
25 Jul -2.1 04:57:50 10° W 04:59:46 15° SW 05:01:42 10° S visible
25 Jul -3.6 23:14:40 10° WSW 23:17:55 73° NNW 23:21:10 10° ENE visible
26 Jul -2.6 00:51:33 10° WNW 00:54:40 41° N 00:56:45 18° ENE visible
26 Jul -1.7 02:28:09 10° WNW 02:29:16 20° WNW 02:29:16 20° WNW visible
26 Jul -3.9 22:22:20 10° WSW 22:25:35 78° SSE 22:28:51 10° ENE visible
26 Jul -2.7 23:59:05 10° W 00:02:14 43° N 00:05:20 10° ENE visible
27 Jul -2.4 01:35:49 10° WNW 01:37:56 34° NW 01:37:56 34° NW visible
27 Jul -2.9 23:06:36 10° W 23:09:48 50° NNW 23:12:59 10° ENE visible
28 Jul -2.8 00:43:27 10° WNW 00:46:37 46° N 00:46:57 43° NNE visible
28 Jul -3.4 22:14:08 10° W 22:17:22 65° NNW 22:20:37 10° ENE visible
28 Jul -2.6 23:51:01 10° WNW 23:54:09 42° N 23:56:05 20° ENE visible
29 Jul -1.6 01:27:36 10° WNW 01:28:42 20° WNW 01:28:42 20° WNW visible
29 Jul -2.6 22:58:32 10° WNW 23:01:40 42° N 23:04:48 10° ENE visible
30 Jul -3.0 00:35:14 10° WNW 00:37:54 50° NNW 00:37:54 50° NNW visible
30 Jul -2.8 22:06:01 10° W 22:09:11 47° N 22:12:22 10° ENE visible
30 Jul -3.0 23:42:50 10° WNW 23:46:00 48° N 23:47:07 32° ENE visible
31 Jul -1.1 01:19:21 10° WNW 01:19:44 13° WNW 01:19:44 13° WNW visible
31 Jul -2.7 22:50:23 10° WNW 22:53:31 42° N 22:56:22 12° ENE visible
01 Aug -2.5 00:26:55 10° WNW 00:28:58 36° WNW 00:28:58 36° WNW visible
01 Aug -2.6 21:57:52 10° WNW 22:01:00 42° N 22:04:07 10° ENE visible
01 Aug -3.6 23:34:31 10° WNW 23:37:46 67° NNE 23:38:14 56° ENE visible
02 Aug -3.1 22:42:05 10° WNW 22:45:17 51° NNE 22:47:30 18° E visible
